E24CR-1 Weather Reports


Display with metric or nautical units.
time (UTC)temp
F
wind
direction
speed
MPH
gust
MPH
rain 1hr
in
rain 24hr
in
rain mn
in
humidity
%
barometer
mb
20260502213422 82 0 0.0 0.0 0.00 0.00 0.00 49 950.0
20260502212357 83 0 0.0 0.0 0.00 0.00 0.00 49 950.0
20260502211333 83 0 0.0 0.0 0.00 0.00 0.00 49 950.0
20260502210309 83 0 0.0 0.0 0.00 0.00 0.00 50 950.0
20260502205245 83 0 0.0 0.0 0.00 0.00 0.00 51 950.0
20260502204221 83 0 0.0 0.0 0.00 0.00 0.00 49 950.0
20260502203157 83 0 0.0 0.0 0.00 0.00 0.00 49 950.0
20260502202132 83 0 0.0 0.0 0.00 0.00 0.00 50 950.0
20260502201108 83 0 0.0 0.0 0.00 0.00 0.00 49 950.0
20260502200044 83 0 0.0 0.0 0.00 0.00 0.00 49 950.0
20260502195020 84 0 0.0 0.0 0.00 0.00 0.00 49 950.0
20260502193956 84 0 0.0 0.0 0.00 0.00 0.00 49 950.0
20260502192932 84 0 0.0 0.0 0.00 0.00 0.00 50 950.0
20260502191908 84 0 0.0 0.0 0.00 0.00 0.00 50 950.0
20260502190844 84 0 0.0 0.0 0.00 0.00 0.00 50 950.0
20260502185819 84 0 0.0 0.0 0.00 0.00 0.00 50 950.0
20260502184755 84 0 0.0 0.0 0.00 0.00 0.00 49 950.0
20260502183731 84 0 0.0 0.0 0.00 0.00 0.00 49 950.0
20260502182707 85 0 0.0 0.0 0.00 0.00 0.00 49 950.0
20260502181643 85 0 0.0 0.0 0.00 0.00 0.00 49 950.0
20260502180619 84 0 0.0 0.0 0.00 0.00 0.00 50 950.0
20260502170353 85 0 0.0 0.0 0.00 0.00 0.00 47 951.0
20260502164305 86 0 0.0 0.0 0.00 0.00 0.00 46 951.0
20260502163241 86 0 0.0 0.0 0.00 0.00 0.00 45 951.0
20260502162217 86 0 0.0 0.0 0.00 0.00 0.00 45 951.0
20260502161153 86 0 0.0 0.0 0.00 0.00 0.00 44 951.0
20260502160129 86 0 0.0 0.0 0.00 0.00 0.00 44 951.0
20260502151952 88 0 0.0 0.0 0.00 0.00 0.00 41 950.0
20260502150928 88 0 0.0 0.0 0.00 0.00 0.00 41 950.0
20260502130425 90 0 0.0 0.0 0.00 0.00 0.00 34 948.0
20260502123310 91 0 0.0 0.0 0.00 0.00 0.00 32 948.0
20260502122246 91 0 0.0 0.0 0.00 0.00 0.00 33 947.0
20260502121222 91 0 0.0 0.0 0.00 0.00 0.00 33 947.0
20260502120158 91 0 0.0 0.0 0.00 0.00 0.00 33 947.0
20260502115133 91 0 0.0 0.0 0.00 0.00 0.00 33 947.0
20260502114109 91 0 0.0 0.0 0.00 0.00 0.00 33 947.0
20260502113045 92 0 0.0 0.0 0.00 0.00 0.00 32 946.0
20260502112021 93 0 0.0 0.0 0.00 0.00 0.00 30 946.0
20260502110957 93 0 0.0 0.0 0.00 0.00 0.00 30 946.0
20260502105933 93 0 0.0 0.0 0.00 0.00 0.00 30 946.0
20260502104909 93 0 0.0 0.0 0.00 0.00 0.00 30 946.0
20260502103844 94 0 0.0 0.0 0.00 0.00 0.00 30 946.0
20260502102820 95 0 0.0 0.0 0.00 0.00 0.00 29 946.0
20260502101756 95 0 0.0 0.0 0.00 0.00 0.00 28 946.0
20260502100732 94 0 0.0 0.0 0.00 0.00 0.00 29 946.0
20260502091531 95 0 0.0 0.0 0.00 0.00 0.00 30 946.0
20260502090507 95 0 0.0 0.0 0.00 0.00 0.00 29 947.0
20260502071041 98 0 0.0 0.0 0.00 0.00 0.00 30 948.0
20260502070017 98 0 0.0 0.0 0.00 0.00 0.00 30 949.0
20260502064953 99 0 0.0 0.0 0.00 0.00 0.00 30 949.0
20260502063929 97 0 0.0 0.0 0.00 0.00 0.00 33 949.0
20260502062905 96 0 0.0 0.0 0.00 0.00 0.00 33 949.0
20260502061841 97 0 0.0 0.0 0.00 0.00 0.00 32 950.0
20260502060816 94 0 0.0 0.0 0.00 0.00 0.00 36 950.0
20260502055752 96 0 0.0 0.0 0.00 0.00 0.00 34 950.0
20260502054728 96 0 0.0 0.0 0.00 0.00 0.00 34 950.0
20260502053704 97 0 0.0 0.0 0.00 0.00 0.00 34 951.0
20260502052640 97 0 0.0 0.0 0.00 0.00 0.00 34 951.0
20260502051616 98 0 0.0 0.0 0.00 0.00 0.00 33 951.0
20260502050552 97 0 0.0 0.0 0.00 0.00 0.00 34 951.0
20260502045528 97 0 0.0 0.0 0.00 0.00 0.00 35 951.0
20260502044504 94 0 0.0 0.0 0.00 0.00 0.00 38 951.0
20260502043439 94 0 0.0 0.0 0.00 0.00 0.00 37 952.0
20260502042415 96 0 0.0 0.0 0.00 0.00 0.00 36 952.0
20260502041350 93 0 0.0 0.0 0.00 0.00 0.00 40 952.0
20260502040327 93 0 0.0 0.0 0.00 0.00 0.00 40 952.0
20260502035306 94 0 0.0 0.0 0.00 0.00 0.00 40 952.0
20260502034238 95 0 0.0 0.0 0.00 0.00 0.00 39 952.0
20260502033214 91 0 0.0 0.0 0.00 0.00 0.00 42 952.0
20260502032150 94 0 0.0 0.0 0.00 0.00 0.00 40 952.0
20260502031126 94 0 0.0 0.0 0.00 0.00 0.00 39 952.0
20260502025038 92 0 0.0 0.0 0.00 0.00 0.00 41 953.0
20260502024014 92 0 0.0 0.0 0.00 0.00 0.00 42 953.0
20260502022949 91 0 0.0 0.0 0.00 0.00 0.00 43 953.0
20260502021925 88 0 0.0 0.0 0.00 0.00 0.00 47 953.0
20260502020901 92 0 0.0 0.0 0.00 0.00 0.00 43 953.0
20260502015837 91 0 0.0 0.0 0.00 0.00 0.00 42 953.0
20260502014813 91 0 0.0 0.0 0.00 0.00 0.00 43 952.0
20260502013749 90 0 0.0 0.0 0.00 0.00 0.00 45 952.0
20260502012724 87 0 0.0 0.0 0.00 0.00 0.00 50 952.0
20260502011659 84 0 0.0 0.0 0.00 0.00 0.00 59 952.0
20260502010635 84 0 0.0 0.0 0.00 0.00 0.00 51 952.0
20260502005611 84 0 0.0 0.0 0.00 0.00 0.00 50 952.0
20260502004547 84 0 0.0 0.0 0.00 0.00 0.00 51 952.0
20260502003523 84 0 0.0 0.0 0.00 0.00 0.00 52 952.0
20260502002458 84 0 0.0 0.0 0.00 0.00 0.00 51 952.0
20260502001434 83 0 0.0 0.0 0.00 0.00 0.00 54 952.0
20260502000410 82 0 0.0 0.0 0.00 0.00 0.00 54 951.0
20260501235345 81 0 0.0 0.0 0.00 0.00 0.00 55 951.0
20260501234322 81 0 0.0 0.0 0.00 0.00 0.00 55 951.0
20260501233257 81 0 0.0 0.0 0.00 0.00 0.00 55 951.0
20260501232233 81 0 0.0 0.0 0.00 0.00 0.00 54 951.0
20260501231203 81 0 0.0 0.0 0.00 0.00 0.00 53 951.0
20260501230131 82 0 0.0 0.0 0.00 0.00 0.00 52 951.0
20260501225107 82 0 0.0 0.0 0.00 0.00 0.00 52 951.0
20260501224043 82 0 0.0 0.0 0.00 0.00 0.00 51 950.0
20260501223018 82 0 0.0 0.0 0.00 0.00 0.00 52 950.0
20260501221954 82 0 0.0 0.0 0.00 0.00 0.00 53 950.0
20260501220930 82 0 0.0 0.0 0.00 0.00 0.00 53 950.0
20260501215906 82 0 0.0 0.0 0.00 0.00 0.00 53 950.0
20260501214842 82 0 0.0 0.0 0.00 0.00 0.00 52 950.0